User: anonymous   Login
Location: Lourdes
(43.1000°N, 0.0500°W)
Time: 09:20:16
(UTC+00:00)
Language:

FENGYUN 1C DEB - Orbit

View from above orbital plane
View from above orbital plane
View from above satellite
View from above satellite

Ground track
Ground track

The orbit data is extracted from the following two-line orbital elements,

1 30105U 99025RJ  21166.84063052  .00000106  00000-0  59154-4 0  9993
2 30105  98.5592 187.8392 0209960 136.8547 224.9298 14.17286317745100
Epoch (UTC): 15 June 2021 20:10:30
Eccentricity: 0.0209960
inclination: 98.5592°
perigee height: 683 km
apogee height: 986 km
right ascension of ascending node: 187.8392°
argument of perigee: 136.8547°
revolutions per day: 14.17286317
mean anomaly at epoch: 224.9298°
orbit number at epoch: 74510

The dashed part of the orbit path shows where the satellite is in the earth's shadow,  

DLR